sat.trackr.live / text

‹ back to catalog

STARLINK-30092

NORAD 57467 · 2023-107L

PAYLOAD ACTIVE UNKNOWN

§ Identity

Operator
Country
US
Launch date
2023-07-28
Launch site
AFETR
Launch vehicle
Mass (kg)
RCS (m²)

Purposes: comms

External: N2YO · Heavens-Above · Gunter

§ Orbital elements

Epoch: 2026-09-20T11:12:06.476832Z

Period
94.27 min
Inclination
43.0048°
Eccentricity
0.0001491
Mean motion
15.27578507 rev/d
Perigee alt
482.0 km
Apogee alt
484.1 km
Semi-major
6,861.2 km
B*
-1.9370e-6
RAAN
316.2849°
Arg perigee
264.1900°
Mean anomaly
95.8781°
Rev number
17,493

§ Raw data

STARLINK-300921 57467U 23107L   26263.46674163 -.00000316  00000+0 -19370-5 0  99942 57467  43.0048 316.2849 0001491 264.1900  95.8781 15.27578507174939

JSON: /api/v1/satellites/57467 · /tle

For live sub-satellite position, see the globe view (requires WebGL).

§ Visibility from observer

Set your observer location to see the next 7 days of passes ≥ 10°. The values pass through the URL so the page stays shareable.

No JS? Fill the form by hand. The geolocation button needs JavaScript.